Crossville, TN

2:48 PM CST on February 10, 2016 (GMT -0600)
Crossville Memorial-Whitson

Weather History for KCSV - May, 2013

Change the Weather History Date:

Wednesday, May 1, 2013

  Actual Average Record
Temperature  
Mean Temperature 65 °F 60 °F  
Max Temperature 75 °F 71 °F 85 °F (2007)
Min Temperature 55 °F 49 °F 28 °F (1963)
Degree Days  
Heating Degree Days 0    
Month to date heating degree days 0  
Since 1 July heating degree days 4216  
Cooling Degree Days 0    
Month to date cooling degree days 0  
Year to date cooling degree days 21  
Growing Degree Days 14 (Base 50)    
Moisture  
Dew Point 52 °F    
Average Humidity 64    
Maximum Humidity 86    
Minimum Humidity 41    
Precipitation  
Precipitation 0.00 in 0.17 in 2.80 in (2010)
Month to date precipitation 0.00 0.17  
Year to date precipitation 22.49 19.19  
Sea Level Pressure  
Sea Level Pressure 30.12 in    
Wind  
Wind Speed 5 mph (ESE)    
Max Wind Speed 12 mph    
Max Gust Speed 17 mph    
Visibility 10 miles    
Events      
T = Trace of Precipitation, MM = Missing Value Source: NWS Daily Summary

Daily Weather History Graph

Daily Weather History Graph

Search for Another Location

Airport or City:

Trip Planner

Search our weather history database for the weather conditions in past years. The results will help you decide how hot, cold, wet, or windy it might be!

Date:

Astronomy

May. 01, 2013 Rise Set
Actual Time 5:47 AM CDT 7:27 PM CDT
Civil Twilight 5:20 AM CDT 7:55 PM CDT
Nautical Twilight 4:47 AM CDT 8:28 PM CDT
Astronomical Twilight 4:12 AM CDT 9:03 PM CDT
Moon 12:36 AM CDT (5/1) 11:25 AM CDT (5/1)
Length of Visible Light 14h 35m
Length of Day
13h 40m
Waning Gibbous, 59% of the Moon is Illuminated
May 1
Waning Gibbous
May 2
Last Quarter
May 9
New
May 17
First Quarter
May 24
Full

Hourly Weather History & Observations

Time (CDT) Temp. Dew Point Humidity Pressure Visibility Wind Dir Wind Speed Gust Speed Precip Events Conditions
12:53 AM 57.9 °F 51.1 °F 78% 30.09 in 10.0 mi Calm Calm - N/A   Clear
1:53 AM 60.1 °F 52.0 °F 75% 30.09 in 10.0 mi South 4.6 mph - N/A   Clear
2:53 AM 59.0 °F 52.0 °F 78% 30.08 in 10.0 mi South 3.5 mph - N/A   Clear
3:53 AM 57.0 °F 53.1 °F 87% 30.08 in 10.0 mi Calm Calm - N/A   Clear
4:53 AM 57.9 °F 53.1 °F 84% 30.09 in 10.0 mi Calm Calm - N/A   Clear
5:53 AM 55.0 °F 52.0 °F 89% 30.11 in 10.0 mi Calm Calm - N/A   Clear
7:53 AM 62.1 °F 55.0 °F 78% 30.15 in 10.0 mi Calm Calm - N/A   Mostly Cloudy
8:53 AM 66.0 °F 54.0 °F 65% 30.17 in 10.0 mi Variable 3.5 mph - N/A   Clear
11:53 AM 71.1 °F 54.0 °F 55% 30.15 in 10.0 mi SE 4.6 mph - N/A   Overcast
12:53 PM 73.9 °F 55.0 °F 52% 30.14 in 10.0 mi Variable 6.9 mph - N/A   Scattered Clouds
1:53 PM 73.9 °F 53.1 °F 48% 30.14 in 10.0 mi East 5.8 mph - N/A   Mostly Cloudy
2:53 PM 73.9 °F 50.0 °F 43% 30.11 in 10.0 mi East 8.1 mph - N/A   Mostly Cloudy
3:53 PM 73.9 °F 51.1 °F 45% 30.11 in 10.0 mi SE 8.1 mph - N/A   Clear
4:53 PM 73.0 °F 48.9 °F 42% 30.11 in 10.0 mi Variable 6.9 mph 16.1 mph N/A   Clear
5:53 PM 72.0 °F 50.0 °F 46% 30.11 in 10.0 mi East 8.1 mph - N/A   Clear
6:53 PM 70.0 °F 50.0 °F 49% 30.12 in 10.0 mi ESE 5.8 mph - N/A   Clear
7:53 PM 66.9 °F 51.1 °F 57% 30.12 in 10.0 mi East 3.5 mph - N/A   Clear
8:53 PM 66.0 °F 51.1 °F 59% 30.13 in 10.0 mi East 5.8 mph - N/A   Clear
9:53 PM 66.0 °F 50.0 °F 56% 30.14 in 10.0 mi East 6.9 mph - N/A   Clear
10:53 PM 64.0 °F 48.9 °F 58% 30.14 in 10.0 mi East 4.6 mph - N/A   Clear
11:53 PM 62.1 °F 48.9 °F 62% 30.14 in 10.0 mi ESE 3.5 mph - N/A   Clear